Regional Weather Roundup
Issued by NWS Northern Indiana

Home | Current Version | Previous Version | Graphics & Text | Print | Product List | Glossary On
Versions: 1 2 3 4 5 6 7 8 9 10 11 12 13 14 15 16 17 18 19 20 21 22 23 24 25 26 27 28 29 30 31 32 33 34 35 36 37 38 39 40 41 42 43 44 45 46 47 48 49 50
000
ASUS43 KIWX 280500
RWRIWX

KIWX WEATHER ROUNDUP
NATIONAL WEATHER SERVICE NORTHERN INDIANA
100 AM EDT TUE APR 28 2015

NOTE: "FAIR" INDICATES FEW OR NO CLOUDS BELOW 12,000 FEET WITH NO
SIGNIFICANT WEATHER AND/OR OBSTRUCTIONS TO VISIBILITY.

* THESE STATIONS ARE NOT UNDER NWS QUALITY CONTROL. THEY ALSO MAY NOT
  REPORT WEATHER SUCH AS PRECIPITATION OR FOG.

INZ001>027-280600-
NORTHERN INDIANA

CITY           SKY/WX    TMP DP  RH WIND       PRES   REMARKS
KNOX*          CLEAR     34  28  80 CALM      30.10S
SOUTH BEND     CLEAR     37  32  82 CALM      30.11S
GOSHEN         CLEAR     38  33  82 CALM      30.10S
WARSAW*        CLEAR     37  34  87 CALM      30.10S
ANGOLA*        CLEAR     37  34  87 CALM      30.09S
FORT WAYNE     CLEAR     38  33  82 CALM      30.10S
PERU/GRISSOM   CLEAR     40  35  81 N6        30.09S

$$
INZ028>050-280600-
CENTRAL INDIANA

CITY           SKY/WX    TMP DP  RH WIND       PRES   REMARKS
LAFAYETTE      CLEAR     40  34  79 N5        30.10S
KOKOMO*        CLEAR     37  32  81 E6        30.10R
MUNCIE*        CLEAR     41  35  79 E3        30.09R
INDIANAPOLIS   CLEAR     45  36  70 NE8       30.06S

$$
MIZ043>046-050>051-056>058-064>065-071>073-077>080-280600-
SOUTHWEST LOWER MICHIGAN

CITY           SKY/WX    TMP DP  RH WIND       PRES   REMARKS
BATTLE CREEK   CLEAR     40  34  79 SW3       30.10S
BENTON HARBOR  CLEAR     33  32  96 CALM      30.11S
COLDWATER*     CLEAR     36  32  86 CALM      30.10S
HILLSDALE*     CLEAR     36  34  92 CALM      30.08F
HOLLAND        CLEAR     39  34  82 W3        30.10F
GRAND RAPIDS   CLEAR     42  33  70 W6        30.09S
KALAMAZOO      CLEAR     40  33  76 CALM      30.10S
STURGIS*       CLEAR     37  34  87 CALM      30.10S
THREE RIVERS*  FAIR      37  32  81 CALM      30.10F

$$
OHZ001>008-015>018-024>025-280600-
NORTHWEST OHIO

CITY           SKY/WX    TMP DP  RH WIND       PRES   REMARKS
DEFIANCE       CLEAR     38  32  79 CALM      30.10S
FINDLAY        CLEAR     41  33  73 CALM      30.08S
TOLEDO EXPRESS CLEAR     39  32  76 CALM      30.09S
TOLEDO METCALF CLEAR     42  35  76 E5        30.09F
LIMA           CLEAR     39  33  79 CALM      30.08S

$$
AND FOR LAKE MICHIGAN COASTAL AND OPEN LAKE BUOY OBSERVATIONS

STATION/POSITION TEMP    WIND        PRES    VSBY  WAVE
                 AIR SEA DIR/SP/G                  HT/PER
                 (F)     (DEG/KT/KT) (MB)    (MI)  (FT/S)
CALUMET HARBOR    41     360/  4/  5   N/A
MICHIGAN CITY     40     300/  7/  8   N/A
BURNS HARBOR      42      10/  3/  4 1020.0F
SAINT JOSEPH      43     230/  3/  5 1020.3R
MICHIGAN CITY     40 46  360/  6/  8   N/A           3/ 5

$$
&&



USA.gov is the U.S. government's official web portal to all federal, state and local government web resources and services.